Regional Weather Roundup
Issued by NWS

Home | Current Version | Previous Version | Text Only | Print | Product List | Glossary Off
Versions: 1 2 3 4 5 6 7 8 9 10 11 12 13 14 15 16 17 18 19 20 21 22 23 24 25 26 27 28 29 30 31 32 33 34 35 36 37 38 39 40 41 42 43 44 45 46 47 48 49 50

000
ASUS43 KBIS 041502
RWRND

NORTH DAKOTA REGIONAL WEATHER ROUNDUP
NATIONAL WEATHER SERVICE BISMARCK ND
1000 AM CDT WED MAY 04 2016

NOTE: "FAIR" INDICATES FEW OR NO CLOUDS BELOW 12,000 FEET WITH NO
SIGNIFICANT WEATHER AND/OR OBSTRUCTIONS TO VISIBILITY.


NDZ001>003-009>011-017-041600-
NORTHWEST NORTH DAKOTA

CITY           SKY/WX    TMP DP  RH WIND       PRES   REMARKS
WILLISTON      SUNNY     65  44  46 SW5       30.05F
MINOT          SUNNY     66  33  29 S5        30.05F
MINOT AFB      SUNNY     62  38  40 SE6       30.04F
$$

NDZ018>021-031>035-040>046-041600-
SOUTHWEST NORTH DAKOTA

CITY           SKY/WX    TMP DP  RH WIND       PRES   REMARKS
BISMARCK       SUNNY     58  36  43 SE5       30.12F
DICKINSON      SUNNY     68  39  34 SW12      30.08F
GARRISON         N/A     56  33  42 S5        30.07F
HETTINGER ARPT SUNNY     64  41  42 W6        30.12F
$$

NDZ004>008-012>016-024-026-027-054-041600-
NORTHEAST NORTH DAKOTA

CITY           SKY/WX    TMP DP  RH WIND       PRES   REMARKS
GRAND FORKS    MOSUNNY   53  37  54 N6        30.11F
GRND FRKS AFB  SUNNY     52  36  54 NW1       30.12S
DEVILS LAKE    SUNNY     52  37  56 SW3       30.12F
$$

NDZ022-023-025-028>030-036>039-047>053-041600-
SOUTHEAST NORTH DAKOTA

CITY           SKY/WX    TMP DP  RH WIND       PRES   REMARKS
FARGO          SUNNY     55  36  48 NW6       30.10S
JAMESTOWN      SUNNY     54  36  50 NW7       30.12S
$$




USA.gov is the U.S. government's official web portal to all federal, state and local government web resources and services.